User: anonymous   Login
Location: Caltech
(34.1382°N, 118.1253°W)
Time: 10:10:52
(UTC-07:00)
Language:

Cosmos 1833 - Orbit

View from above orbital plane
View from above orbital plane
View from above satellite
View from above satellite

Ground track
Ground track

The orbit data is extracted from the following two-line orbital elements,

1 17589U 87027A   14295.47246311  .00000359  00000-0  21895-3 0  8470
2 17589 070.9185 060.4034 0011538 318.0894 103.5628 14.12831922423489
Epoch (UTC): 22 October 2014 11:20:20
Eccentricity: 0.0011538
inclination: 70.9185°
perigee height: 841 km
apogee height: 858 km
right ascension of ascending node: 60.4034°
argument of perigee: 318.0894°
revolutions per day: 14.12831922
mean anomaly at epoch: 103.5628°
orbit number at epoch: 42348

The dashed part of the orbit path shows where the satellite is in the earth's shadow,  

DLR